sat.trackr.live / text

‹ back to catalog

STARLINK-11717 [DTC]

NORAD 64126 · 2025-111D

PAYLOAD ACTIVE UNKNOWN

§ Identity

Operator
Country
US
Launch date
2025-05-24
Launch site
AFETR
Launch vehicle
Mass (kg)
RCS (m²)

Purposes: comms

External: N2YO · Heavens-Above · Gunter

§ Orbital elements

Epoch: 2026-09-20T22:20:42.243936Z

Period
91.67 min
Inclination
42.9977°
Eccentricity
0.0000427
Mean motion
15.70927959 rev/d
Perigee alt
356.0 km
Apogee alt
356.5 km
Semi-major
6,734.4 km
B*
1.0298e-3
RAAN
237.1673°
Arg perigee
202.8686°
Mean anomaly
157.2163°
Rev number
7,729

§ Raw data

STARLINK-11717 [DTC]1 64126U 25111D   26263.93104449  .00134337  00000+0  10298-2 0  99942 64126  42.9977 237.1673 0000427 202.8686 157.2163 15.70927959 77297

JSON: /api/v1/satellites/64126 · /tle

For live sub-satellite position, see the globe view (requires WebGL).

§ Visibility from observer

Set your observer location to see the next 7 days of passes ≥ 10°. The values pass through the URL so the page stays shareable.

No JS? Fill the form by hand. The geolocation button needs JavaScript.